Weather History for KJST - October, 2013

Change the Weather History Date:

Thursday, October 24, 2013

  Actual Average Record
Temperature  
Mean Temperature 34 °F 48 °F  
Max Temperature 38 °F 56 °F 82 °F (1963)
Min Temperature 30 °F 40 °F 20 °F (1969)
Degree Days  
Heating Degree Days 31 17  
Month to date heating degree days 276 346  
Since 1 July heating degree days 564 564  
Cooling Degree Days 0 0  
Month to date cooling degree days 16 0  
Year to date cooling degree days 393 382  
Moisture  
Dew Point 28 °F    
Average Humidity 78    
Maximum Humidity 96    
Minimum Humidity 59    
Precipitation  
Precipitation 0.01 in 0.09 in 2.11 in (1917)
Month to date precipitation 2.35 2.42  
Year to date precipitation 31.37 26.71  
Sea Level Pressure  
Sea Level Pressure 29.98 in    
Wind  
Wind Speed 11 mph (West)    
Max Wind Speed 20 mph    
Max Gust Speed 29 mph    
Visibility 8 miles    
Events Snow    
T = Trace of Precipitation, MM = Missing Value Source: NWS Daily Summary

Daily Weather History Graph

Daily Weather History Graph

Search for Another Location

Airport or City:

Trip Planner

Search our weather history database for the weather conditions in past years. The results will help you decide how hot, cold, wet, or windy it might be!

Date:

Astronomy

Oct. 24, 2013 Rise Set
Actual Time 7:36 AM EDT 6:22 PM EDT
Civil Twilight 7:08 AM EDT 6:49 PM EDT
Nautical Twilight 6:36 AM EDT 7:21 PM EDT
Astronomical Twilight 6:04 AM EDT 7:53 PM EDT
Moon 10:44 PM EDT (10/24) 12:36 PM EDT (10/24)
Length of Visible Light 11h 41m
Length of Day
10h 46m
Waning Gibbous, 71% of the Moon is Illuminated
Oct 24
Waning Gibbous
Oct 26
Last Quarter
Nov 3
New
Nov 10
First Quarter
Nov 17
Full

Hourly Weather History & Observations

Time (EDT) Temp. Windchill Dew Point Humidity Pressure Visibility Wind Dir Wind Speed Gust Speed Precip Events Conditions
12:02 AM 33.8 °F 27.7 °F 30.2 °F 87% 29.86 in 10.0 mi West 6.9 mph - N/A   Overcast
12:14 AM 33.8 °F 27.7 °F 32.0 °F 93% 29.86 in 10.0 mi West 6.9 mph - N/A   Overcast
12:54 AM 33.1 °F 24.9 °F 32.0 °F 96% 29.92 in 10.0 mi West 10.4 mph - N/A   Overcast
1:54 AM 33.1 °F 23.9 °F 30.9 °F 92% 29.91 in 10.0 mi West 12.7 mph - N/A   Overcast
2:54 AM 33.1 °F 24.9 °F 30.0 °F 89% 29.92 in 10.0 mi West 10.4 mph - N/A   Overcast
3:37 AM 33.8 °F 25.8 °F 30.2 °F 87% 29.87 in 10.0 mi West 10.4 mph 20.7 mph N/A   Overcast
3:54 AM 32.0 °F 23.6 °F 30.0 °F 92% 29.93 in 10.0 mi West 10.4 mph - N/A   Overcast
4:54 AM 32.0 °F 23.6 °F 28.9 °F 88% 29.94 in 10.0 mi West 10.4 mph 17.3 mph 0.00 in   Overcast
5:15 AM 32.0 °F 23.0 °F 28.4 °F 87% 29.88 in 2.5 mi West 11.5 mph 18.4 mph 0.00 in Snow Light Snow
5:19 AM 32.0 °F 23.6 °F 30.2 °F 93% 29.88 in 2.5 mi West 10.4 mph 18.4 mph 0.00 in Snow Light Snow
5:26 AM 32.0 °F 23.0 °F 30.2 °F 93% 29.88 in 3.0 mi West 11.5 mph - 0.00 in Snow Light Snow
5:38 AM 30.2 °F 20.8 °F 30.2 °F 100% 29.89 in 2.0 mi West 11.5 mph 17.3 mph 0.00 in Snow Light Snow
5:43 AM 30.2 °F 21.3 °F 28.4 °F 93% 29.89 in 3.0 mi West 10.4 mph - 0.00 in Snow Light Snow
5:54 AM 30.9 °F 22.8 °F 30.0 °F 96% 29.96 in 7.0 mi West 9.2 mph - 0.00 in Snow Light Snow
5:59 AM 30.2 °F 21.3 °F 28.4 °F 93% 29.89 in 9.0 mi West 10.4 mph - 0.00 in   Overcast
6:54 AM 30.9 °F 21.7 °F 28.0 °F 89% 29.97 in 10.0 mi West 11.5 mph 20.7 mph 0.00 in   Overcast
7:06 AM 30.2 °F 20.8 °F 26.6 °F 86% 29.92 in 10.0 mi West 11.5 mph - N/A   Overcast
7:19 AM 30.2 °F 20.8 °F 28.4 °F 93% 29.92 in 9.0 mi West 11.5 mph - 0.00 in Snow Light Snow
7:54 AM 30.9 °F 21.7 °F 27.0 °F 85% 29.99 in 9.0 mi West 11.5 mph 17.3 mph 0.00 in Snow Light Snow
8:51 AM 30.2 °F 20.8 °F 26.6 °F 86% 29.94 in 6.0 mi West 11.5 mph 17.3 mph 0.01 in Snow Light Snow
8:54 AM 30.9 °F 21.7 °F 27.0 °F 85% 30.01 in 6.0 mi West 11.5 mph - 0.01 in Snow Light Snow
9:03 AM 30.2 °F 21.3 °F 26.6 °F 86% 29.94 in 9.0 mi West 10.4 mph 18.4 mph 0.00 in   Overcast
9:54 AM 32.0 °F 23.0 °F 26.1 °F 79% 30.02 in 10.0 mi West 11.5 mph 17.3 mph 0.00 in Snow Light Snow
10:54 AM 34.0 °F 25.0 °F 27.0 °F 75% 30.02 in 10.0 mi West 12.7 mph 18.4 mph 0.00 in   Overcast
11:54 AM 35.1 °F 25.5 °F 25.0 °F 67% 30.02 in 10.0 mi WSW 15.0 mph 25.3 mph N/A   Overcast
12:54 PM 37.0 °F 28.1 °F 26.1 °F 65% 30.02 in 10.0 mi West 15.0 mph 24.2 mph N/A   Mostly Cloudy
1:54 PM 35.1 °F 25.9 °F 23.0 °F 61% 30.01 in 10.0 mi WNW 13.8 mph 20.7 mph N/A   Overcast
2:27 PM 33.8 °F 26.4 °F 26.6 °F 75% 29.96 in 2.5 mi West 9.2 mph - 0.00 in Snow Light Snow
2:34 PM 35.6 °F 29.2 °F 28.4 °F 75% 29.96 in 7.0 mi West 8.1 mph - 0.00 in Snow Light Snow
2:54 PM 35.1 °F 26.9 °F 26.1 °F 70% 30.02 in 3.0 mi West 11.5 mph 26.5 mph 0.00 in Snow Light Snow
3:43 PM 33.8 °F 23.9 °F 28.4 °F 81% 29.97 in 3.0 mi West 15.0 mph 24.2 mph 0.00 in Snow Light Snow
3:54 PM 34.0 °F 26.6 °F 27.0 °F 75% 30.04 in 8.0 mi WNW 9.2 mph - 0.00 in Snow Light Snow
4:54 PM 35.1 °F 26.9 °F 27.0 °F 72% 30.04 in 10.0 mi NW 11.5 mph - N/A   Overcast
5:54 PM 34.0 °F 26.6 °F 26.1 °F 73% 30.06 in 10.0 mi West 9.2 mph - N/A   Mostly Cloudy
6:54 PM 33.1 °F 24.9 °F 24.1 °F 70% 30.09 in 10.0 mi West 10.4 mph - N/A   Scattered Clouds
7:54 PM 34.0 °F 27.2 °F 25.0 °F 70% 30.10 in 10.0 mi West 8.1 mph - N/A   Overcast
8:54 PM 33.1 °F 23.9 °F 25.0 °F 72% 30.11 in 10.0 mi West 12.7 mph - N/A   Partly Cloudy
9:54 PM 32.0 °F 23.6 °F 26.1 °F 79% 30.12 in 10.0 mi West 10.4 mph - N/A   Mostly Cloudy
10:18 PM 32.0 °F 24.2 °F 26.6 °F 80% 30.06 in 10.0 mi West 9.2 mph - N/A   Scattered Clouds
10:54 PM 30.9 °F 20.7 °F 26.1 °F 82% 30.13 in 10.0 mi West 13.8 mph - N/A   Scattered Clouds
11:04 PM 32.0 °F 22.1 °F 26.6 °F 80% 30.06 in 10.0 mi West 13.8 mph - N/A   Mostly Cloudy
11:54 PM 30.9 °F 21.7 °F 27.0 °F 85% 30.14 in 10.0 mi West 11.5 mph - N/A   Mostly Cloudy